BAW2LX EGKK-EGCC

Flight info

Callsign BAW2LX
Flight time N/A
Altitude 24000
Route LAM N57 WELIN DCT TIMPO DCT ELVOS DCT TNT
Aircraft B77W/H-SDE1E2E3FGHIJ2J3J4J5M1RWXY/LB1D1

Departure

Time 2026-05-06 21:26
Airport London Gatwick Airport (EGKK)

Arrival

Time N/A
Airport Manchester Airport (EGCC)
Time Latitude Longitude Altitude Speed Heading
2026-05-06 20:51 51.15588 -0.16909 219 ft 0 kts 167°
2026-05-06 21:08 51.15589 -0.16909 210 ft 1 kts 167°
2026-05-06 21:08 51.15613 -0.16917 210 ft 4 kts 168°
2026-05-06 21:08 51.15634 -0.16925 221 ft 4 kts 174°
2026-05-06 21:08 51.15656 -0.16919 222 ft 4 kts 230°
2026-05-06 21:09 51.15666 -0.16884 219 ft 4 kts 258°
2026-05-06 21:09 51.15672 -0.16842 212 ft 4 kts 257°
2026-05-06 21:09 51.15673 -0.16830 215 ft 0 kts 257°
2026-05-06 21:13 51.15667 -0.16872 217 ft 16 kts 257°
2026-05-06 21:13 51.15634 -0.17110 212 ft 23 kts 257°
2026-05-06 21:13 51.15597 -0.17358 215 ft 23 kts 256°
2026-05-06 21:14 51.15514 -0.17430 215 ft 15 kts 169°
2026-05-06 21:14 51.15411 -0.17393 212 ft 15 kts 167°
2026-05-06 21:14 51.15310 -0.17392 221 ft 15 kts 224°
2026-05-06 21:14 51.15287 -0.17557 219 ft 15 kts 259°
2026-05-06 21:15 51.15263 -0.17728 217 ft 18 kts 257°
2026-05-06 21:15 51.15226 -0.17993 218 ft 31 kts 257°
2026-05-06 21:15 51.15185 -0.18331 219 ft 31 kts 260°
2026-05-06 21:15 51.15147 -0.18596 212 ft 15 kts 257°
2026-05-06 21:16 51.15124 -0.18764 215 ft 15 kts 257°
2026-05-06 21:16 51.15107 -0.18883 212 ft 10 kts 257°
2026-05-06 21:16 51.15092 -0.18996 216 ft 10 kts 258°
2026-05-06 21:16 51.15077 -0.19109 213 ft 10 kts 258°
2026-05-06 21:17 51.15062 -0.19223 210 ft 10 kts 258°
2026-05-06 21:17 51.15029 -0.19469 215 ft 32 kts 258°
2026-05-06 21:17 51.14982 -0.19811 219 ft 31 kts 257°
2026-05-06 21:17 51.14935 -0.20149 215 ft 31 kts 257°
2026-05-06 21:18 51.14888 -0.20478 212 ft 28 kts 257°
2026-05-06 21:18 51.14849 -0.20768 211 ft 17 kts 258°
2026-05-06 21:18 51.14830 -0.20907 215 ft 13 kts 258°
2026-05-06 21:18 51.14811 -0.21046 219 ft 13 kts 258°
2026-05-06 21:19 51.14786 -0.21182 218 ft 13 kts 255°
2026-05-06 21:19 51.14768 -0.21293 213 ft 3 kts 257°
2026-05-06 21:19 51.14764 -0.21322 210 ft 0 kts 257°
2026-05-06 21:20 51.14762 -0.21334 210 ft 2 kts 257°
2026-05-06 21:20 51.14759 -0.21359 214 ft 3 kts 257°
2026-05-06 21:21 51.14746 -0.21389 221 ft 4 kts 227°
2026-05-06 21:21 51.14745 -0.21390 221 ft 0 kts 226°
2026-05-06 21:22 51.14740 -0.21394 219 ft 6 kts 207°
2026-05-06 21:22 51.14658 -0.21358 217 ft 7 kts 151°
2026-05-06 21:23 51.14628 -0.21338 216 ft 0 kts 162°
2026-05-06 21:23 51.14602 -0.21324 217 ft 13 kts 162°
2026-05-06 21:23 51.14561 -0.21294 222 ft 7 kts 152°
2026-05-06 21:23 51.14525 -0.21238 221 ft 8 kts 122°
2026-05-06 21:24 51.14522 -0.21155 216 ft 8 kts 77°
2026-05-06 21:24 51.14524 -0.21143 217 ft 0 kts 77°
2026-05-06 21:25 51.14525 -0.21133 221 ft 8 kts 77°
2026-05-06 21:25 51.14597 -0.20621 219 ft 93 kts 77°
2026-05-06 21:25 51.14795 -0.19169 231 ft 170 kts 79°
2026-05-06 21:26 51.15032 -0.17249 749 ft 186 kts 79°
2026-05-06 21:26 51.15320 -0.15127 1491 ft 197 kts 75°
2026-05-06 21:26 51.15622 -0.13011 2618 ft 197 kts 75°
2026-05-06 21:26 51.15931 -0.10848 3541 ft 205 kts 76°
2026-05-06 21:27 51.16249 -0.08610 4398 ft 207 kts 75°
2026-05-06 21:27 51.16750 -0.06448 4952 ft 210 kts 58°
2026-05-06 21:27 51.17600 -0.04499 5005 ft 217 kts 51°
2026-05-06 21:27 51.18546 -0.02571 5228 ft 232 kts 50°
2026-05-06 21:28 51.19619 -0.00399 5694 ft 263 kts 51°
2026-05-06 21:28 51.20752 0.01913 5999 ft 272 kts 52°
2026-05-06 21:28 51.21910 0.04301 5987 ft 272 kts 52°
2026-05-06 21:28 51.23060 0.06682 6024 ft 270 kts 52°
2026-05-06 21:29 51.24209 0.09064 6556 ft 271 kts 52°
2026-05-06 21:29 51.25162 0.11657 7467 ft 277 kts 73°
2026-05-06 21:29 51.25506 0.14693 8387 ft 282 kts 80°
2026-05-06 21:29 51.26154 0.17633 9267 ft 287 kts 52°
2026-05-06 21:30 51.27681 0.19626 10311 ft 287 kts 22°
2026-05-06 21:30 51.29665 0.20332 10964 ft 305 kts
2026-05-06 21:30 51.31858 0.20199 11237 ft 336 kts 354°
2026-05-06 21:30 51.34287 0.19833 11716 ft 360 kts 353°
2026-05-06 21:31 51.36814 0.19405 12694 ft 370 kts 353°